Wind_Speed
51 50 50 50 49 49 48 48 47 45 44 43 44 44 44 44 44 44 44 44 43 44 43 43 44 44 44 44 44 44 44 44 44 44 44 44 44 44
51 51 50 50 49 49 49 48 48 47 45 44 44 45 45 46 45 45 45 45 45 45 45 45 45 45 45 46 45 45 45 45 45 45 45 46 46 46
51 51 51 51 51 50 50 49 49 48 47 46 46 45 45 46 46 46 46 46 46 47 46 46 46 46 46 46 46 47 46 46 47 47 46 47 47 47
52 52 52 51 51 51 51 50 50 49 49 48 47 46 45 45 46 47 47 47 47 47 47 47 47 47 47 47 47 47 47 47 48 49 48 48 48 49
52 52 53 52 52 52 52 51 51 51 50 50 49 48 47 47 48 47 47 47 48 48 48 48 48 48 48 48 48 48 49 49 50 50 50 49 50 50
53 53 54 53 53 53 53 52 52 51 51 51 50 50 49 49 49 48 48 48 48 48 49 49 48 48 48 48 49 49 49 49 49 50 50 50 51 51
53 53 53 53 54 54 53 52 51 51 50 51 51 51 51 50 50 49 49 49 49 49 49 48 48 48 49 49 49 48 49 48 49 49 50 50 51 51
51 52 52 53 53 52 52 52 51 50 50 51 51 51 51 51 50 50 49 49 49 48 49 49 49 49 49 49 48 48 48 49 49 50 50 50 50 50
48 49 50 51 51 50 50 51 51 50 51 50 50 50 50 50 50 50 49 48 47 47 48 48 48 48 49 49 49 49 49 50 50 50 50 51 51 51
48 48 49 49 50 50 49 50 50 50 50 50 49 49 50 50 50 49 48 47 47 48 48 47 47 48 49 50 50 50 51 51 51 51 51 51 51 52
47 48 48 48 48 49 49 49 49 49 49 49 49 49 49 49 49 48 48 47 47 47 48 48 48 48 49 49 50 51 52 52 52 52 52 52 52 52
47 47 47 48 49 49 49 48 48 48 48 48 48 48 48 47 47 47 47 47 47 46 47 48 48 48 48 48 49 50 51 52 52 51 51 52 52 52
46 46 46 47 47 47 47 47 47 47 47 47 47 46 47 46 46 46 46 46 47 46 47 47 47 48 48 48 49 50 51 51 52 51 51 50 50 51
44 44 45 45 45 45 45 45 45 45 45 45 45 45 44 45 45 46 46 46 47 47 47 47 47 48 48 48 48 48 49 50 50 50 49 49 49 50
42 42 43 43 44 44 44 44 44 44 44 43 43 44 44 45 46 46 46 47 46 46 46 47 47 48 48 48 48 48 48 47 47 47 47 48 49 49
42 42 42 42 43 43 43 43 43 43 43 43 42 44 44 45 45 45 45 46 46 45 45 46 46 47 47 46 46 45 45 45 45 45 45 45 46 46
40 41 41 42 42 41 41 42 42 42 42 42 42 42 42 43 43 43 43 44 44 44 44 44 44 44 44 44 43 43 43 43 43 42 42 42 43 43
39 39 39 39 40 40 40 40 41 41 41 41 41 41 41 41 41 41 41 42 42 42 43 43 43 42 42 42 41 41 40 40 40 40 40 40 40 41
36 37 37 37 38 38 39 38 39 39 40 40 40 40 40 40 40 40 40 40 40 41 41 41 41 41 40 40 40 39 38 37 37 37 38 38 39 39
35 35 35 36 36 36 36 36 36 37 38 39 38 38 38 39 39 39 38 38 37 37 38 39 39 39 39 39 38 37 36 35 35 36 36 36 36 36
33 34 34 35 35 35 34 34 34 35 35 36 36 36 37 37 36 36 36 35 36 36 36 37 37 37 37 37 36 35 35 35 35 35 35 34 34 34
33 33 33 33 33 34 34 33 34 34 34 34 34 34 35 35 35 34 34 34 34 34 34 34 35 35 35 35 34 34 34 34 34 34 34 34 33 33
32 32 32 31 32 32 32 33 33 33 32 33 33 33 33 33 33 33 33 33 33 33 33 33 33 33 33 33 33 33 33 33 33 33 33 33 33 33
Wind_Direction
248 248 249 250 250 251 252 252 252 252 253 255 257 258 259 260 261 261 262 262 262 263 264 264 265 266 267 267 267 269 270 271 273 274 275 277 278 279
248 249 249 249 249 249 250 250 251 252 253 255 257 259 260 260 261 261 262 262 263 263 264 264 265 266 267 267 268 268 270 271 273 275 276 277 278 278
248 248 248 248 249 249 250 250 251 252 254 254 256 258 260 260 261 262 263 264 264 264 264 265 266 266 267 268 268 269 271 272 274 275 276 277 278 279
248 249 249 248 249 249 250 250 251 252 254 255 257 258 259 261 262 264 264 265 265 265 265 266 266 267 267 268 269 270 271 273 275 275 275 276 278 279
248 248 248 248 249 249 250 250 251 253 254 255 257 258 259 261 263 264 265 265 265 265 265 266 267 267 267 268 269 270 272 273 274 274 275 276 277 278
248 247 248 248 249 249 250 251 252 253 254 255 257 258 259 261 263 264 264 265 265 265 265 266 266 266 267 268 269 271 272 273 274 275 275 276 277 278
248 247 248 248 249 249 250 250 252 253 254 256 257 258 259 261 262 263 264 264 265 265 265 266 267 267 268 269 270 271 272 273 274 276 276 277 278 279
249 248 248 248 249 250 250 250 251 252 254 256 257 258 259 260 261 263 263 264 264 265 265 266 266 267 268 270 271 272 273 273 275 275 276 277 277 278
248 247 248 248 248 249 250 250 251 252 254 256 257 258 259 260 261 262 262 263 263 264 265 266 266 268 269 269 270 272 273 274 275 276 276 277 278 278
248 248 248 248 248 248 250 251 252 253 255 256 256 258 260 261 261 261 261 262 263 264 265 266 267 268 269 270 271 272 274 275 275 276 277 278 278 278
249 249 248 248 248 249 250 251 252 253 255 256 257 258 259 260 260 260 261 262 264 265 266 267 268 269 270 271 273 274 275 275 276 277 278 278 278 278
249 249 249 249 249 249 250 251 252 253 254 256 257 258 258 259 260 261 262 263 264 265 266 268 269 270 271 272 274 275 276 276 277 277 278 278 278 277
248 248 249 250 250 250 251 252 253 253 254 255 256 257 258 259 260 261 262 263 265 266 267 268 270 271 272 274 275 276 277 277 277 277 277 277 278 278
248 248 249 249 249 249 251 252 252 253 254 255 256 257 259 260 260 261 262 264 265 266 268 270 271 273 274 275 276 277 278 278 278 277 277 277 278 279
246 246 247 248 247 248 249 250 251 251 253 254 255 257 259 260 261 262 263 264 265 267 269 271 272 274 275 276 277 278 279 279 278 278 278 278 278 279
245 245 246 247 247 248 250 251 250 251 252 254 256 257 259 260 262 263 264 264 266 267 269 271 272 274 276 277 278 278 278 278 278 278 278 279 279 279
244 245 246 247 248 249 250 251 251 251 253 254 255 257 258 259 260 262 262 264 265 266 268 271 272 273 275 276 277 278 278 278 278 278 277 278 279 279
245 245 245 246 248 248 249 250 251 251 252 254 255 256 257 259 261 262 263 264 265 266 267 269 270 272 273 275 276 278 278 278 278 278 278 279 281 281
246 245 245 247 248 248 249 250 251 251 252 253 254 256 257 259 261 262 263 263 264 266 267 268 269 271 272 273 276 277 278 278 278 279 280 282 283 283
246 246 246 247 248 248 248 249 251 252 253 253 254 255 257 259 260 261 262 262 263 265 267 268 269 270 272 273 274 275 277 278 279 280 282 283 284 285
246 246 247 248 248 247 247 248 250 252 253 254 255 256 258 260 261 261 261 262 263 265 267 268 269 271 272 272 272 273 275 277 278 280 282 283 285 287
245 246 248 247 246 247 247 249 250 251 252 254 255 257 258 259 260 260 261 262 263 265 266 267 268 270 271 271 271 272 274 275 277 279 281 283 286 288
246 246 247 247 247 248 249 251 252 252 253 254 255 256 257 258 259 260 261 262 263 265 266 267 268 269 270 270 271 272 273 274 277 280 282 285 287 288
Height
5666 5669 5674 5678 5682 5686 5690 5694 5697 5701 5704 5707 5709 5711 5713 5715 5717 5718 5720 5721 5723 5724 5725 5726 5728 5728 5729 5730 5730 5731 5731 5731 5731 5731 5730 5730 5729 5727
5652 5656 5661 5665 5669 5673 5677 5681 5684 5688 5692 5696 5698 5700 5702 5703 5705 5707 5709 5710 5711 5713 5714 5715 5716 5717 5717 5718 5719 5719 5719 5719 5719 5719 5719 5718 5717 5716
5639 5643 5647 5652 5656 5660 5664 5668 5672 5675 5679 5684 5686 5688 5690 5692 5694 5695 5697 5698 5700 5701 5702 5703 5704 5705 5705 5706 5707 5707 5707 5707 5707 5707 5706 5706 5705 5704
5626 5630 5634 5638 5642 5647 5651 5655 5659 5662 5666 5670 5673 5676 5678 5680 5681 5683 5684 5686 5687 5689 5690 5691 5691 5692 5693 5694 5694 5694 5695 5695 5695 5694 5694 5693 5692 5690
5612 5616 5620 5624 5629 5633 5637 5641 5645 5649 5653 5657 5660 5663 5665 5667 5668 5670 5672 5673 5675 5676 5677 5678 5679 5679 5680 5681 5681 5682 5682 5682 5682 5681 5680 5679 5678 5677
5598 5602 5606 5611 5615 5619 5624 5628 5632 5636 5639 5643 5646 5650 5652 5654 5655 5658 5659 5660 5662 5663 5664 5665 5665 5666 5667 5668 5668 5668 5668 5668 5667 5667 5666 5665 5664 5663
5583 5588 5592 5597 5601 5606 5610 5614 5618 5622 5625 5629 5633 5636 5638 5640 5643 5644 5646 5647 5648 5649 5650 5651 5652 5653 5653 5654 5654 5654 5654 5654 5654 5653 5653 5652 5651 5649
5569 5574 5578 5583 5587 5592 5596 5600 5604 5608 5612 5615 5619 5622 5625 5627 5629 5630 5632 5634 5636 5637 5637 5638 5638 5639 5640 5640 5640 5640 5641 5640 5640 5639 5639 5638 5637 5636
5556 5560 5564 5569 5573 5578 5582 5586 5590 5594 5598 5602 5605 5607 5610 5613 5615 5617 5618 5620 5622 5623 5623 5625 5625 5626 5626 5626 5627 5627 5627 5626 5626 5625 5624 5623 5622 5621
5543 5547 5552 5556 5560 5564 5568 5573 5577 5581 5585 5588 5591 5594 5596 5598 5600 5603 5604 5606 5608 5609 5609 5611 5612 5612 5612 5613 5613 5613 5613 5612 5611 5610 5609 5609 5608 5606
5531 5535 5539 5543 5548 5552 5556 5560 5564 5568 5571 5574 5577 5579 5582 5584 5586 5588 5590 5592 5594 5595 5596 5597 5598 5599 5599 5599 5599 5598 5598 5597 5596 5595 5594 5593 5592 5591
5519 5523 5527 5531 5534 5538 5543 5547 5551 5554 5558 5561 5563 5566 5568 5570 5573 5575 5577 5579 5580 5582 5583 5584 5584 5585 5586 5587 5585 5584 5583 5582 5581 5580 5579 5578 5577 5576
5506 5510 5514 5518 5522 5526 5530 5534 5538 5541 5544 5547 5550 5553 5555 5557 5559 5561 5563 5565 5567 5569 5569 5570 5571 5571 5571 5573 5572 5570 5568 5567 5566 5565 5564 5563 5562 5561
5495 5498 5502 5506 5510 5513 5517 5521 5525 5528 5532 5535 5537 5540 5542 5544 5546 5548 5550 5552 5553 5555 5555 5556 5557 5557 5557 5557 5557 5556 5554 5552 5551 5550 5549 5548 5547 5546
5483 5486 5490 5494 5497 5501 5505 5509 5512 5516 5519 5522 5525 5527 5529 5531 5533 5535 5536 5538 5539 5540 5541 5542 5542 5543 5543 5543 5543 5541 5540 5539 5537 5536 5535 5534 5533 5532
5471 5475 5479 5482 5486 5490 5494 5497 5500 5504 5507 5510 5512 5514 5516 5518 5520 5521 5523 5525 5526 5527 5527 5528 5528 5529 5529 5528 5528 5527 5526 5525 5524 5522 5521 5520 5519 5517
5460 5464 5468 5472 5475 5479 5482 5485 5488 5491 5494 5497 5499 5502 5503 5505 5507 5508 5510 5512 5513 5514 5515 5515 5515 5515 5515 5515 5515 5514 5513 5512 5510 5509 5508 5507 5506 5504
5450 5453 5457 5461 5464 5467 5471 5474 5476 5479 5482 5484 5487 5489 5491 5493 5495 5496 5497 5499 5500 5501 5502 5502 5503 5503 5503 5502 5502 5501 5500 5499 5498 5497 5496 5495 5494 5492
5439 5443 5447 5450 5453 5456 5459 5462 5465 5467 5470 5472 5475 5477 5479 5481 5482 5484 5485 5486 5488 5489 5489 5490 5490 5490 5491 5491 5490 5489 5488 5488 5487 5485 5484 5483 5482 5480
5430 5433 5436 5439 5442 5445 5448 5451 5454 5456 5458 5461 5463 5465 5467 5469 5471 5472 5473 5474 5476 5477 5477 5478 5478 5478 5478 5479 5479 5478 5477 5476 5476 5475 5474 5472 5471 5469
5420 5423 5426 5429 5432 5435 5438 5440 5443 5446 5448 5450 5452 5454 5456 5458 5459 5461 5462 5463 5465 5465 5466 5467 5467 5467 5467 5467 5468 5467 5467 5466 5465 5464 5463 5462 5461 5459
5411 5414 5417 5420 5423 5425 5428 5431 5433 5436 5438 5440 5442 5444 5446 5447 5449 5450 5452 5453 5454 5455 5455 5456 5456 5456 5456 5457 5457 5457 5457 5456 5455 5453 5452 5452 5450 5449
5403 5405 5408 5411 5413 5416 5419 5421 5424 5426 5428 5430 5432 5434 5436 5437 5439 5440 5442 5443 5444 5445 5445 5446 5446 5446 5446 5446 5447 5447 5446 5446 5445 5444 5443 5441 5440 5438